Content
SEND FEEDBACK

Daily
Averages
Monthly
Summary
Peru

TARAPOTO, PERU


Home > South America > Peru
Elevation: 925 feet     Latitude: 06 27S     Longitude: 076 23W

WEATHER
 
SELECT A DAY
Number of Records: 43,903;   Date Range: 1/4/02 - 11/21/14
 
SHARE

PRINT THIS DATA

[ ← Previous Day ]
WEATHER ALMANAC - FEBRUARY 13, 2013
[ Next Day → ]
[ °C ]   °F
Weather ElementAverageHighLow
Temperature83.6 °F93.2 °F (4:00 pm)73 °F (7:00 am)
Dewpoint72.4 °F74 °F (4:00 pm)71 °F (7:00 am)
Humidity68.3 %94 % (7:00 am)46 % (4:00 pm)
Barometer29.85 in30.07 in (10:00 am)29.71 in (4:00 pm)
Wind Speed5.7 mph11.5 mph (12:00 pm)
Weather ElementAverage
Visibility6.1 mi
Wind DirectionSSW (196.5 °)

Weather ElementTotal
Precipitation---
Cooling Degree Days18.1 (Base 65)
Growing Degree Days33.1 (Base 50)
Averaged from 22 records on February 13, 2013
WEATHER CONDITIONS BREAKOUT
WIND DIRECTION BREAKOUT
WEATHER BY HOUR - FEBRUARY 13, 2013
[ °C ]   °F
Local TimeTemperatureDewpointHumidityBarometerVisibilityWind DirectionWind SpeedGust SpeedPrecipitationEventsConditions
7:00 AM73.0 °F71.0 °F90 %30.02 in6.0 miCalmPartly Cloudy
7:00 AM73.4 °F71.6 °F94 %29.83 in6.2 miCalmScattered Clouds
8:00 AM75.2 °F71.6 °F89 %29.86 in6.2 miCalmScattered Clouds
9:00 AM78.8 °F71.6 °F78 %29.86 in6.2 miCalmScattered Clouds
10:00 AM82.4 °F71.6 °F70 %29.86 in6.2 miESE (120°)3.5 mphScattered Clouds
10:00 AM82.0 °F72.0 °F66 %30.07 in6.0 miESE (120°)3.5 mphPartly Cloudy
11:00 AM86.0 °F73.4 °F66 %29.86 in6.2 miSouth (180°)3.5 mphScattered Clouds
12:00 PM87.8 °F73.4 °F62 %29.83 in6.2 miNNW (330°)11.5 mphMostly Cloudy
1:00 PM90.0 °F73.0 °F49 %30.00 in6.0 miWNW (300°)9.2 mphPartly Cloudy
1:00 PM89.6 °F73.4 °F59 %29.83 in6.2 miWNW (300°)9.2 mphScattered Clouds
2:00 PM91.4 °F73.4 °F55 %29.77 in6.2 miNNE (30°)9.2 mphScattered Clouds
3:00 PM91.4 °F73.4 °F55 %29.74 in6.2 miNNW (330°)11.5 mphScattered Clouds
4:00 PM92.0 °F74.0 °F46 %29.88 in6.0 miNorth11.5 mphPartly Cloudy
4:00 PM93.2 °F73.4 °F52 %29.71 in6.2 miNorth (360°)11.5 mphScattered Clouds
5:00 PM89.6 °F73.4 °F59 %29.71 in6.2 miNorth (360°)8.1 mphScattered Clouds
6:00 PM86.0 °F73.4 °F66 %29.71 in6.2 miWest (270°)3.5 mphMostly Cloudy
7:00 PM82.4 °F71.6 °F70 %29.77 in6.2 miWNW (300°)4.6 mphMostly Cloudy
7:00 PM82.0 °F72.0 °F65 %29.95 in6.0 miWNW (300°)4.6 mphPartly Cloudy
8:00 PM80.6 °F71.6 °F74 %29.77 in6.2 miWNW (300°)5.8 mphScattered Clouds
9:00 PM78.8 °F71.6 °F78 %29.80 in6.2 miWNW (300°)3.5 mphScattered Clouds
10:00 PM77.0 °F71.0 °F76 %29.98 in6.0 miCalmPartly Cloudy
10:00 PM77.0 °F71.6 °F83 %29.86 in6.2 miNNE (30°)10.4 mphThunderstormScattered Clouds
Hourly data recorded from SPST, located miles away from Tarapoto, Peru







STORIES FROM OUR PARTNERS